{"data":{"norad_id":27445,"intl_designator":"2002-030A","name":"GALAXY 3C (G-3C)","alt_names":[],"object_type":"PAYLOAD","status":"ACTIVE","operator":null,"country":"US","launch_date":"2002-06-15","launch_site_code":"SEAL","launch_vehicle":null,"mission":null,"orbit_class":"UNKNOWN","rcs_meters":33.4954,"size_class":null,"mass_kg":null,"dimensions":null,"purposes":["comms"],"wikipedia_slug":null,"has_3d_model":false,"image_url":null,"decayed_at":null,"tle_current":{"epoch":"2026-09-19T14:53:29.698368Z","epoch_age_seconds":87008,"freshness":"FRESH","line1":"1 27445U 02030A   26262.62048262 -.00000156  00000+0  00000+0 0  9996","line2":"2 27445   3.9787  76.7820 0001635  42.0869   8.1979  1.00272619 47443","mean_motion":1.00272619,"eccentricity":0.0001635,"inclination_deg":3.9787,"raan_deg":76.782,"arg_perigee_deg":42.0869,"mean_anomaly_deg":8.1979,"bstar":0,"rev_number":4744,"period_min":1436.0849595441,"perigee_km":35779.467266887,"apogee_km":35793.255057786,"semimajor_km":42164.498162336,"source":"CELESTRAK","updated_at":"2026-09-20T09:00:35.514336Z"}}}